Flag for Argentina Weather past 2 weeks in Tucumán, Tucumán, Argentina

Now
82 °F

Passing clouds.


Feels Like: 81 °F
Forecast: 55 / 77 °F
Wind: 3 mph from Northeast

Location: Tucuman Aerodrome

Current Time: Sep 19, 2014 at 1:33:55 PM

Latest Report: Sep 19, 2014 at 1:00 PM


Visibility: 5 mi

Pressure: 29.95 "Hg

Humidity: 37%

Dew point: 54 °F

Location of TucumánLocation

Historic Weather in Tucumán — Graph

°F

Tucumán temperature yesterday

Maximum temperature yesterday: 81 °F (at 3:00 PM)
Minimum temperature yesterday: 55 °F (at 7:00 AM)
Average temperature yesterday: 69 °F

Past Weeks' High & Low Weather Summary

 TemperatureHumidityPressure
High95 °F (Sep 9, 3:00 PM)100% (Sep 5, 3:00 AM)30.30 "Hg (Sep 5, 3:00 AM)
Low46 °F (Sep 12, 4:00 AM)26% (Sep 10, 6:00 PM)29.47 "Hg (Sep 9, 4:00 PM)
Average66 °F62%29.96 "Hg
* Reported Sep 4 12:00 Noon — Sep 19 12:00 Noon, Tucumán, Weather by CustomWeather, © 2014

Note: Actual official high and low records may vary slightly from our data, if they occured in-between our weather recording intervals... More about our weather records

Advertising

Tucumán weather history for previous 24 hours

 ConditionsComfort  
Time TempWeatherWind HumidityBarometerVisibility
12:00 PM
Sep 19
81 °FClear.3 mph37%29.98 "Hg5 mi
11:00 AM77 °FClear.7 mph39%30.01 "Hg5 mi
10:00 AM72 °FClear.9 mph47%30.01 "Hg5 mi
9:00 AM64 °FClear.9 mph64%30.01 "Hg6 mi
8:00 AM57 °FClear.3 mph77%29.98 "Hg6 mi
7:00 AM59 °FSunny.9 mph72%29.98 "Hg10 mi
6:00 AM63 °FClear.9 mph64%29.95 "Hg10 mi
5:00 AM63 °FClear.7 mph64%29.95 "Hg10 mi
4:00 AM68 °FClear.14 mph56%29.95 "Hg10 mi
3:00 AM68 °FClear.14 mph56%29.98 "Hg10 mi
2:00 AM68 °FClear.12 mph60%29.98 "Hg10 mi
1:00 AM68 °FClear.9 mph60%29.98 "Hg10 mi
12:00 AM68 °FClear.9 mph73%29.98 "Hg10 mi
11:00 PM
Sep 18
70 °FClear.3 mph64%29.95 "Hg3 mi
10:00 PM70 °FOvercast.5 mph69%29.95 "Hg3 mi
9:00 PM73 °FOvercast.3 mph53%29.92 "Hg3 mi
8:00 PM72 °FPassing clouds.7 mph57%29.89 "Hg4 mi
7:00 PM75 °FPassing clouds.7 mph47%29.86 "Hg5 mi
6:00 PM79 °FScattered clouds.2 mph45%29.83 "Hg5 mi
5:00 PM79 °FScattered clouds.No wind45%29.83 "Hg5 mi
4:00 PM77 °FScattered clouds.7 mph44%29.83 "Hg5 mi
3:00 PM81 °FScattered clouds.9 mph39%29.86 "Hg5 mi
2:00 PM77 °FScattered clouds.9 mph47%29.89 "Hg5 mi
1:00 PM77 °FPassing clouds.9 mph47%29.92 "Hg5 mi
Weather by CustomWeather, © 2014

See weather overviewHow to use our weather pages